Retour au catalogue

USA 61

ActifMilitaireLEO
NORAD 20691·PAYLOAD·🇺🇸 United States

Lancé Jun 8, 1990 depuis Cape Canaveral Space Force Station

Loading…

Prochains Passages (prochaines 24 heures)

TLE

FraisSource: Space-Track

Époque: Sep 14, 2026, 14:31 UTC

1 20691U 90050C   26257.60502736  .00002951  00000-0  21486-3 0  9994
2 20691  63.2963 330.4058 0877842  86.8945 283.2046 13.63657913118490

Suivez USA 61 en temps réel avec AllMySat

Download on the App Store